Regional Weather Roundup
Issued by NWS Albany, NY

Home | Current Version | Previous Version | Text Only | Print | Product List | Glossary On
Versions: 1 2 3 4 5 6 7 8 9 10 11 12 13 14 15 16 17 18 19 20 21 22 23 24 25 26 27 28 29 30 31 32 33 34 35 36 37 38 39 40 41 42 43 44 45 46 47 48
000
ASUS41 KALY 031910
RWRALY

NEW YORK STATE HOURLY WEATHER ROUNDUP
NATIONAL WEATHER SERVICE ALBANY NY
200 PM EST TUE MAR 03 2015

NOTE: "FAIR" INDICATES FEW OR NO CLOUDS BELOW 12,000 FEET WITH NO
SIGNIFICANT WEATHER AND/OR NO OBSTRUCTIONS TO VISIBILITY.

NYZ032-033-038>043-046>054-057>066-NYZ062>081-032000-
EAST


CITY           SKY/WX    TMP DP  RH WIND       PRES   REMARKS
ALBANY         CLOUDY    27   5  39 S13G18    30.23F WCI  16
GLENS FALLS    CLOUDY    24   7  48 S7        30.21F WCI  16
POUGHKEEPSIE   CLOUDY    30   9  41 SW9       30.28F WCI  22
NEWBURGH       CLOUDY    28  14  54 SE14      30.27F WCI  17
MONTGOMERY     CLOUDY    28  11  48 S10       30.24F WCI  19
WHITE PLAINS   CLOUDY    27   9  46 SE8       30.28F WCI  19
ISLIP          CLOUDY    28   8  43 S9        30.32F WCI  19
NEW YORK CITY  CLOUDY    30  14  51 S13       30.31F WCI  20
CENTRAL PARK   CLOUDY    31  14  49 S8        30.33F WCI  23
$$

NYZ005>009-017-018-044>046-055-056-032000-
CENTRAL


CITY           SKY/WX    TMP DP  RH WIND       PRES   REMARKS
FULTON         LGT SNOW  23  16  74 SE8       30.05F VSB 3/4 WCI  14
SYRACUSE       LGT SNOW  20  17  86 S13       30.09F FOG     WCI   8
ROME           CLOUDY    23  10  57 SE12      30.14F WCI  12
ELMIRA         SNOW      22  19  89 SW5       30.06F VSB 1/4 WCI  16
BINGHAMTON     SNOW      19  15  84 S14       30.03F VSB 1/2 WCI   6
MONTICELLO     CLOUDY    21  16  79 S10       30.17F WCI  10
$$

NYZ026>034-041>043-032000-
NORTH


CITY           SKY/WX    TMP DP  RH WIND       PRES   REMARKS
WATERTOWN      CLOUDY    29   7  39 S9        30.05F WCI  20
FORT DRUM      NOT AVBL
MASSENA        CLOUDY    27   2  34 NE3       30.09F
SARANAC LAKE   CLOUDY    23   7  50 S6        29.98F WCI  16
PLATTSBURGH    CLOUDY    22   7  52 SE16      30.15F WCI   8
$$

NYZ001>004-010>016-019>021-032000-
WEST


CITY           SKY/WX    TMP DP  RH WIND       PRES   REMARKS
NIAGARA FALLS  SNOW      22  19  89 SE8       29.90F VSB 1/2 WCI  12
BUFFALO        HVY SNOW  23  19  85 SE10      29.90F VSB 1/4 WCI  12
DUNKIRK        FRZ RAIN  26  24  92 CALM      29.86F
JAMESTOWN      CLOUDY    25  21  86 S16G25    29.81F WCI  12
WELLSVILLE     LGT SNOW  20  15  81 S16G23    29.89F WCI   6
ROCHESTER      SNOW      23  19  85 SE14      29.97F VSB 1/2 WCI  11
PENN YAN       SNOW      22  18  85 S9        30.01F VSB 1/2 WCI  12
$$

             KEY
       WCI = WIND CHILL INDEX
       VSB = VISIBILITY
       HX  = HEAT INDEX
$$



USA.gov is the U.S. government's official web portal to all federal, state and local government web resources and services.